Location: Lancaster
(34.6980°N, 118.1360°W)
Time: 00:00:15
(UTC-08:00)

ISS - Pass Details

Date: 18 November 2017
Orbit: 401 x 407 km, 51.6° (Epoch: 25 November)

Event Time Altitude Azimuth Distance (km) Brightness Sun altitude
Exits shadow 04:14:56 19° 74° (ENE) 1,040 -1.1 -27.6°
Drops below altitude 10° 04:16:16 10° 93° (E) 1,447 0.0 -27.3°
Sets 04:18:34 0° 107° (ESE) 2,303 1.2 -26.8°
